User: anonymous   Login
Location: La Trinit�
(48.1620°N, 3.4512°W)
Time: 23:35:23
(UTC+00:00)
Language:

Cosmos 2369 Rocket - Orbit

View from above orbital plane
View from above orbital plane
View from above satellite
View from above satellite

Ground track
Ground track

The orbit data is extracted from the following two-line orbital elements,

1 26070U 00006B   21204.56714650 -.00000243  00000-0 -99859-4 0  9999
2 26070  71.0004  50.3546 0018482 238.1938 121.7385 14.15467726109391
Epoch (UTC): 23 July 2021 13:36:41
Eccentricity: 0.0018482
inclination: 71.0004°
perigee height: 827 km
apogee height: 854 km
right ascension of ascending node: 50.3546°
argument of perigee: 238.1938°
revolutions per day: 14.15467726
mean anomaly at epoch: 121.7385°
orbit number at epoch: 10939

The dashed part of the orbit path shows where the satellite is in the earth's shadow,  

DLR